P/2008 J2 ( Beshore )

Japanese version
Home page
Updated on September 28, 2008

---------------------------------------------------------------------

* Profile

Discovery Date May 6, 2008
Magnitude 13.8 mag
Discoverer E. Beshore (Mt. Lemmon)

* Pictures

* Orbital Elements

Epoch 2008 Apr. 4.0 TT = JDT 2454560.5
T 2008 Mar. 20.84541 TT                                 MPC
q   2.4102821            (2000.0)            P               Q
n   0.15178231     Peri.  131.80832     -0.62954027     +0.75667489
a   3.4806094      Node    98.29863     -0.75520989     -0.54257170
e   0.3075115      Incl.   10.26968     -0.18258442     -0.36477262
P   6.49

* Finding Charts

* Magnitudes Graph

        m1 =  16   + 5 log d +  10 log r           [  ,46]  (             - 2008 May   5)
        m1 = -32.5 + 5 log d + 100 log r(t + 200)  [46,  ]  (2008 May   5 -             )

---------------------------------------------------------------------

The orbital elements are published on M.P.E.C. 2008-N39.
The charts are made with StellaNavigator Ver.8 (AstroArts).
The magnitudes graphs are made with Comet for Windows.

---------------------------------------------------------------------

Copyright(C) Seiichi Yoshida (comet@aerith.net). All rights reserved.